Time,TemperatureF,DewpointF,PressureIn,WindDirection,WindDirectionDegrees,WindSpeedMPH,WindSpeedGustMPH,Humidity,HourlyPrecipIn,Conditions,Clouds,dailyrainin,SolarRadiationWatts/m^2,SoftwareType,DateUTC
2013-07-25 00:00:00,71.3,62.0,30.00,NE,44,0.0,0.0,73,0.00,,,0.00,0,weatherlink.com 1.10,2013-07-25 05:00:00,
2013-07-25 00:15:00,71.6,63.0,30.00,NE,44,0.0,2.0,74,0.00,,,0.00,0,weatherlink.com 1.10,2013-07-25 05:15:00,
2013-07-25 00:30:00,71.6,63.0,29.99,NE,44,0.0,2.0,74,0.00,,,0.00,0,weatherlink.com 1.10,2013-07-25 05:30:00,
2013-07-25 00:45:00,70.3,62.0,29.99,NE,44,0.0,0.0,76,0.00,,,0.00,0,weatherlink.com 1.10,2013-07-25 05:45:00,
2013-07-25 01:00:00,71.2,62.0,30.00,NE,44,0.0,0.0,73,0.00,,,0.00,0,weatherlink.com 1.10,2013-07-25 06:00:00,
2013-07-25 01:15:00,70.9,61.0,30.00,NE,44,0.0,0.0,72,0.00,,,0.00,0,weatherlink.com 1.10,2013-07-25 06:15:00,
2013-07-25 01:30:00,69.5,63.0,30.01,NE,44,0.0,0.0,80,0.00,,,0.00,0,weatherlink.com 1.10,2013-07-25 06:30:00,
2013-07-25 01:45:00,68.8,63.0,30.01,NE,44,0.0,0.0,81,0.00,,,0.00,0,weatherlink.com 1.10,2013-07-25 06:45:00,
2013-07-25 02:00:00,69.2,62.0,30.00,NE,44,0.0,0.0,78,0.00,,,0.00,0,weatherlink.com 1.10,2013-07-25 07:00:00,
2013-07-25 02:15:00,68.3,62.0,30.01,NE,44,0.0,0.0,80,0.00,,,0.00,0,weatherlink.com 1.10,2013-07-25 07:15:00,
2013-07-25 02:30:00,67.8,63.0,30.00,NE,44,0.0,0.0,84,0.00,,,0.00,0,weatherlink.com 1.10,2013-07-25 07:30:00,
2013-07-25 02:45:00,66.8,62.0,30.00,NE,44,0.0,0.0,85,0.00,,,0.00,0,weatherlink.com 1.10,2013-07-25 07:45:00,
2013-07-25 03:00:00,66.8,62.0,30.01,NE,44,0.0,1.0,85,0.00,,,0.00,0,weatherlink.com 1.10,2013-07-25 08:00:00,
2013-07-25 03:15:00,66.8,62.0,30.02,NE,44,1.0,2.0,85,0.00,,,0.00,0,weatherlink.com 1.10,2013-07-25 08:15:00,
2013-07-25 03:30:00,66.6,63.0,30.02,NE,44,0.0,0.0,87,0.00,,,0.00,0,weatherlink.com 1.10,2013-07-25 08:30:00,
2013-07-25 03:45:00,65.6,62.0,30.01,NE,44,0.0,0.0,87,0.00,,,0.00,0,weatherlink.com 1.10,2013-07-25 08:45:00,
2013-07-25 04:00:00,65.8,63.0,30.01,NE,44,0.0,0.0,89,0.00,,,0.00,0,weatherlink.com 1.10,2013-07-25 09:00:00,
2013-07-25 04:15:00,65.3,62.0,30.00,NE,44,0.0,0.0,89,0.00,,,0.00,0,weatherlink.com 1.10,2013-07-25 09:15:00,
2013-07-25 04:30:00,65.4,62.0,30.00,NE,44,0.0,1.0,89,0.00,,,0.00,0,weatherlink.com 1.10,2013-07-25 09:30:00,
2013-07-25 04:45:00,65.7,62.0,30.00,NE,44,0.0,0.0,89,0.00,,,0.00,0,weatherlink.com 1.10,2013-07-25 09:45:00,
2013-07-25 05:00:00,66.2,62.0,30.00,NE,44,1.0,1.0,86,0.00,,,0.00,0,weatherlink.com 1.10,2013-07-25 10:00:00,
2013-07-25 05:15:00,66.1,62.0,30.00,NE,44,0.0,0.0,86,0.00,,,0.00,0,weatherlink.com 1.10,2013-07-25 10:15:00,
2013-07-25 05:30:00,65.9,62.0,30.00,NE,44,0.0,2.0,86,0.00,,,0.00,0,weatherlink.com 1.10,2013-07-25 10:30:00,
2013-07-25 05:45:00,66.3,61.0,29.99,NE,44,1.0,4.0,84,0.00,,,0.00,0,weatherlink.com 1.10,2013-07-25 10:45:00,
2013-07-25 06:00:00,66.1,62.0,30.00,NE,44,0.0,1.0,85,0.00,,,0.00,0,weatherlink.com 1.10,2013-07-25 11:00:00,
2013-07-25 06:15:00,65.9,61.0,30.00,NE,44,0.0,1.0,84,0.00,,,0.00,0,weatherlink.com 1.10,2013-07-25 11:15:00,
2013-07-25 06:30:00,66.3,61.0,30.00,NE,44,0.0,1.0,83,0.00,,,0.00,7,weatherlink.com 1.10,2013-07-25 11:30:00,
2013-07-25 06:45:00,66.3,61.0,30.00,NE,44,0.0,1.0,84,0.00,,,0.00,23,weatherlink.com 1.10,2013-07-25 11:45:00,
2013-07-25 07:00:00,66.7,61.0,30.01,NE,44,0.0,1.0,83,0.00,,,0.00,28,weatherlink.com 1.10,2013-07-25 12:00:00,
2013-07-25 07:15:00,67.4,62.0,30.01,NE,44,0.0,2.0,82,0.00,,,0.00,86,weatherlink.com 1.10,2013-07-25 12:15:00,
2013-07-25 07:31:00,68.4,63.0,30.02,NE,44,0.0,1.0,82,0.00,,,0.00,127,weatherlink.com 1.10,2013-07-25 12:31:00,
2013-07-25 07:46:00,70.2,63.0,30.02,NE,44,0.0,0.0,78,0.00,,,0.00,167,weatherlink.com 1.10,2013-07-25 12:46:00,
2013-07-25 08:01:00,71.2,63.0,30.03,NE,44,0.0,2.0,76,0.00,,,0.00,223,weatherlink.com 1.10,2013-07-25 13:01:00,
2013-07-25 08:16:00,72.8,64.0,30.03,ESE,123,0.0,3.0,73,0.00,,,0.00,294,weatherlink.com 1.10,2013-07-25 13:16:00,
2013-07-25 08:31:00,72.3,63.0,30.04,ESE,122,0.0,3.0,72,0.00,,,0.00,169,weatherlink.com 1.10,2013-07-25 13:31:00,
2013-07-25 08:46:00,73.5,64.0,30.04,ESE,115,0.0,2.0,72,0.00,,,0.00,225,weatherlink.com 1.10,2013-07-25 13:46:00,
2013-07-25 09:01:00,75.2,64.0,30.04,ESE,118,0.0,4.0,68,0.00,,,0.00,211,weatherlink.com 1.10,2013-07-25 14:01:00,
2013-07-25 09:16:00,75.4,63.0,30.04,SE,126,2.0,4.0,66,0.00,,,0.00,229,weatherlink.com 1.10,2013-07-25 14:16:00,
2013-07-25 09:31:00,76.4,65.0,30.04,ESE,115,1.0,5.0,67,0.00,,,0.00,552,weatherlink.com 1.10,2013-07-25 14:31:00,
2013-07-25 09:46:00,78.2,64.0,30.04,ESE,113,2.0,5.0,62,0.00,,,0.00,512,weatherlink.com 1.10,2013-07-25 14:46:00,
2013-07-25 10:01:00,80.2,64.0,30.04,SSE,148,1.0,5.0,59,0.00,,,0.00,527,weatherlink.com 1.10,2013-07-25 15:01:00,
2013-07-25 10:16:00,81.6,66.0,30.04,SW,220,2.0,9.0,59,0.00,,,0.00,633,weatherlink.com 1.10,2013-07-25 15:16:00,
2013-07-25 10:31:00,81.4,64.0,30.05,South,180,2.0,7.0,55,0.00,,,0.00,318,weatherlink.com 1.10,2013-07-25 15:31:00,
2013-07-25 10:46:00,81.6,65.0,30.04,ESE,111,3.0,7.0,57,0.00,,,0.00,446,weatherlink.com 1.10,2013-07-25 15:46:00,
2013-07-25 11:01:00,82.9,66.0,30.04,SSE,159,3.0,6.0,56,0.00,,,0.00,671,weatherlink.com 1.10,2013-07-25 16:01:00,
2013-07-25 11:16:00,83.3,65.0,30.03,SSE,151,3.0,5.0,54,0.00,,,0.00,432,weatherlink.com 1.10,2013-07-25 16:16:00,
2013-07-25 11:31:00,84.8,64.0,30.03,SW,234,2.0,7.0,50,0.00,,,0.00,555,weatherlink.com 1.10,2013-07-25 16:31:00,
2013-07-25 11:46:00,84.3,64.0,30.02,South,186,2.0,7.0,51,0.00,,,0.00,592,weatherlink.com 1.10,2013-07-25 16:46:00,
2013-07-25 12:01:00,84.6,64.0,30.01,South,181,3.0,4.0,51,0.00,,,0.00,708,weatherlink.com 1.10,2013-07-25 17:01:00,
2013-07-25 12:16:00,84.4,65.0,30.01,SSE,161,0.0,6.0,53,0.00,,,0.00,584,weatherlink.com 1.10,2013-07-25 17:16:00,
2013-07-25 12:31:00,85.5,65.0,30.02,SW,236,1.0,6.0,51,0.00,,,0.00,450,weatherlink.com 1.10,2013-07-25 17:31:00,
2013-07-25 12:46:00,85.1,65.0,30.02,SW,232,3.0,4.0,51,0.00,,,0.00,323,weatherlink.com 1.10,2013-07-25 17:46:00,
2013-07-25 13:02:00,84.9,65.0,30.02,SW,230,0.0,4.0,51,0.00,,,0.00,269,weatherlink.com 1.10,2013-07-25 18:02:00,
2013-07-25 13:16:00,84.3,65.0,30.01,SW,227,0.0,3.0,53,0.00,,,0.00,253,weatherlink.com 1.10,2013-07-25 18:16:00,
2013-07-25 13:32:00,83.4,64.0,30.01,SW,227,0.0,2.0,53,0.00,,,0.00,172,weatherlink.com 1.10,2013-07-25 18:32:00,
2013-07-25 13:46:00,83.0,65.0,30.01,SW,227,0.0,2.0,54,0.00,,,0.00,185,weatherlink.com 1.10,2013-07-25 18:46:00,
2013-07-25 14:01:00,83.6,66.0,30.01,SW,227,0.0,1.0,56,0.00,,,0.00,227,weatherlink.com 1.10,2013-07-25 19:01:00,
2013-07-25 14:16:00,83.2,65.0,30.00,SW,227,0.0,1.0,55,0.00,,,0.00,167,weatherlink.com 1.10,2013-07-25 19:16:00,
2013-07-25 14:31:00,82.5,67.0,29.99,SW,227,0.0,1.0,59,0.00,,,0.00,139,weatherlink.com 1.10,2013-07-25 19:31:00,
2013-07-25 14:46:00,82.4,67.0,29.99,SW,227,0.0,1.0,60,0.00,,,0.00,151,weatherlink.com 1.10,2013-07-25 19:46:00,
2013-07-25 15:02:00,82.6,67.0,30.00,SW,227,0.0,2.0,59,0.00,,,0.00,135,weatherlink.com 1.10,2013-07-25 20:02:00,
2013-07-25 15:17:00,83.7,68.0,30.00,SW,227,1.0,1.0,60,0.00,,,0.00,329,weatherlink.com 1.10,2013-07-25 20:17:00,
2013-07-25 15:31:00,83.6,68.0,30.00,SW,227,0.0,4.0,59,0.00,,,0.00,186,weatherlink.com 1.10,2013-07-25 20:31:00,
2013-07-25 15:46:00,82.5,68.0,30.01,SW,227,0.0,4.0,61,0.00,,,0.00,98,weatherlink.com 1.10,2013-07-25 20:46:00,
2013-07-25 16:02:00,81.5,68.0,30.02,SW,227,1.0,2.0,64,0.00,,,0.00,100,weatherlink.com 1.10,2013-07-25 21:02:00,
2013-07-25 16:17:00,80.2,69.0,30.02,SW,227,0.0,1.0,69,0.00,,,0.00,72,weatherlink.com 1.10,2013-07-25 21:17:00,
2013-07-25 16:32:00,79.0,69.0,30.03,SW,227,0.0,1.0,72,0.00,,,0.00,60,weatherlink.com 1.10,2013-07-25 21:32:00,
2013-07-25 16:47:00,76.6,70.0,30.04,SW,236,0.0,3.0,80,0.00,,,0.00,65,weatherlink.com 1.10,2013-07-25 21:47:00,
2013-07-25 17:02:00,75.3,70.0,30.03,WSW,238,1.0,3.0,83,0.01,,,0.01,58,weatherlink.com 1.10,2013-07-25 22:02:00,
2013-07-25 17:17:00,74.3,70.0,30.02,WSW,246,0.0,5.0,86,0.02,,,0.02,62,weatherlink.com 1.10,2013-07-25 22:17:00,
2013-07-25 17:32:00,73.7,70.0,30.02,NE,51,0.0,7.0,87,0.02,,,0.02,63,weatherlink.com 1.10,2013-07-25 22:32:00,
2013-07-25 17:47:00,73.2,69.0,30.01,NE,49,2.0,8.0,87,0.02,,,0.02,60,weatherlink.com 1.10,2013-07-25 22:47:00,
2013-07-25 18:02:00,72.8,69.0,30.01,East,80,0.0,4.0,87,0.01,,,0.02,39,weatherlink.com 1.10,2013-07-25 23:02:00,
2013-07-25 18:17:00,72.8,69.0,29.99,ENE,78,0.0,5.0,87,0.00,,,0.02,40,weatherlink.com 1.10,2013-07-25 23:17:00,
2013-07-25 18:32:00,72.5,69.0,29.99,ESE,113,2.0,4.0,87,0.00,,,0.02,42,weatherlink.com 1.10,2013-07-25 23:32:00,
2013-07-25 18:47:00,72.6,69.0,29.99,ESE,113,0.0,3.0,87,0.00,,,0.02,49,weatherlink.com 1.10,2013-07-25 23:47:00,
2013-07-25 19:02:00,72.5,69.0,29.99,ESE,111,0.0,4.0,87,0.00,,,0.02,28,weatherlink.com 1.10,2013-07-26 00:02:00,
2013-07-25 19:17:00,72.4,69.0,29.98,ESE,111,2.0,2.0,88,0.00,,,0.02,70,weatherlink.com 1.10,2013-07-26 00:17:00,
2013-07-25 19:32:00,72.8,69.0,29.98,ESE,111,0.0,2.0,88,0.00,,,0.02,44,weatherlink.com 1.10,2013-07-26 00:32:00,
2013-07-25 19:47:00,72.9,69.0,29.96,ESE,110,1.0,3.0,88,0.00,,,0.02,16,weatherlink.com 1.10,2013-07-26 00:47:00,
2013-07-25 20:02:00,72.8,70.0,29.96,ESE,110,0.0,3.0,89,0.00,,,0.02,11,weatherlink.com 1.10,2013-07-26 01:02:00,
2013-07-25 20:17:00,72.7,69.0,29.96,ESE,110,0.0,3.0,89,0.00,,,0.02,0,weatherlink.com 1.10,2013-07-26 01:17:00,
2013-07-25 20:32:00,72.8,70.0,29.96,ESE,110,0.0,2.0,89,0.00,,,0.02,0,weatherlink.com 1.10,2013-07-26 01:32:00,
2013-07-25 20:47:00,72.8,69.0,29.96,ESE,110,0.0,1.0,88,0.00,,,0.02,0,weatherlink.com 1.10,2013-07-26 01:47:00,
2013-07-25 21:02:00,72.8,69.0,29.96,ESE,110,0.0,1.0,88,0.00,,,0.02,0,weatherlink.com 1.10,2013-07-26 02:02:00,
2013-07-25 21:17:00,72.8,69.0,29.96,ESE,110,0.0,1.0,88,0.00,,,0.02,0,weatherlink.com 1.10,2013-07-26 02:17:00,
2013-07-25 21:32:00,72.7,69.0,29.98,ESE,110,0.0,0.0,88,0.00,,,0.02,0,weatherlink.com 1.10,2013-07-26 02:32:00,
2013-07-25 21:47:00,72.5,69.0,29.98,ESE,110,0.0,1.0,89,0.00,,,0.02,0,weatherlink.com 1.10,2013-07-26 02:47:00,
2013-07-25 22:02:00,72.3,69.0,29.98,ESE,110,0.0,1.0,90,0.00,,,0.02,0,weatherlink.com 1.10,2013-07-26 03:02:00,
2013-07-25 22:17:00,72.4,69.0,29.99,ESE,110,0.0,3.0,89,0.00,,,0.02,0,weatherlink.com 1.10,2013-07-26 03:17:00,
2013-07-25 22:32:00,72.5,69.0,29.99,ESE,110,0.0,2.0,88,0.00,,,0.02,0,weatherlink.com 1.10,2013-07-26 03:32:00,
2013-07-25 22:47:00,72.4,69.0,29.99,ESE,110,0.0,2.0,88,0.00,,,0.02,0,weatherlink.com 1.10,2013-07-26 03:47:00,
2013-07-25 23:02:00,72.3,69.0,29.98,ESE,110,0.0,0.0,89,0.00,,,0.02,0,weatherlink.com 1.10,2013-07-26 04:02:00,
2013-07-25 23:17:00,72.2,69.0,29.98,ESE,110,0.0,2.0,89,0.00,,,0.02,0,weatherlink.com 1.10,2013-07-26 04:17:00,
2013-07-25 23:32:00,71.7,68.0,29.96,ESE,110,0.0,2.0,89,0.01,,,0.03,0,weatherlink.com 1.10,2013-07-26 04:32:00,
2013-07-25 23:47:00,71.3,68.0,29.95,ESE,110,0.0,2.0,90,0.01,,,0.03,0,weatherlink.com 1.10,2013-07-26 04:47:00,